Location: Newark
(33.4133°N, 82.3847°W)
Time: 14:57:14
(UTC+00:00)

Hubble Space Telescope - Pass Details

Date: 31 January 2020
Orbit: 536 x 540 km, 28.5° (Epoch: 16 February)

Event Time Altitude Azimuth Distance (km) Brightness Sun altitude
Exits shadow 10:10:26 17° 152° (SSE) 1,368 3.1 -28.6°
Drops below altitude 10° 10:12:49 10° 117° (ESE) 1,777 4.2 -28.1°
Sets 10:15:39 0° 98° (E) 2,669 5.6 -27.5°
